Location: Putah Creek Observatory
(38.7021°N, 122.3865°W)
Time: 18:38:10
(UTC-07:00)

CZ-4C R/B - Pass Details

Date: 27 May 2018
Orbit: 684 x 1318 km, 63.4° (Epoch: 20 August)

Event Time Altitude Azimuth Distance (km) Brightness Sun altitude
Rises 22:40:02 0° 328° (NNW) 3,872 7.2 -20.7°
Reaches altitude 10° 22:42:35 10° 330° (NNW) 2,997 6.2 -21.0°
Maximum altitude 22:49:54 74° 56° (NE) 1,276 3.0 -21.8°
Enters shadow 22:53:31 36° 133° (SE) 1,890 3.4 -22.2°
